Location: Unspecified
(0.0000°N, 0.0000°E)
Time: 09:26:44
(UTC+00:00)

ISS - Visible Passes

Search period start: 12 August 2020 00:00
Search period end: 22 August 2020 00:00
Orbit: 418 x 420 km, 51.6° (Epoch: 12 August)

Date Brightness Start Highest point End Pass type
(mag) Time Alt. Az. Time Alt. Az. Time Alt. Az.
12 Aug -2.4 19:27:57 10° WNW 19:31:02 34° SW 19:31:53 29° SSW visible
13 Aug -3.8 18:40:09 10° NW 18:43:30 89° SW 18:46:52 10° SE visible
15 Aug -1.5 05:29:26 10° S 05:32:12 23° SE 05:34:58 10° ENE visible
15 Aug -0.9 18:42:49 10° W 18:44:58 16° SW 18:47:07 10° SSW visible
16 Aug -0.7 04:43:37 10° SE 04:44:37 11° SE 04:45:37 10° ESE visible
17 Aug -3.6 05:30:21 10° SW 05:33:39 55° NW 05:36:55 10° NNE visible
18 Aug -3.2 04:45:06 38° S 04:46:03 56° SE 04:49:20 10° NE visible
19 Aug -0.7 04:00:16 15° E 04:00:16 15° E 04:01:11 10° ENE visible
19 Aug -1.5 05:34:08 10° WNW 05:35:02 11° NW 05:35:56 10° NW visible
20 Aug -2.0 04:48:21 20° NNW 04:48:21 20° NNW 04:50:08 10° N visible
